AirNav   Air Wisconsin Up To $57,000 Bonus
 
 923 users online  

KZER Schuylkill County/Joe Zerbey Airport
Pottsville, Pennsylvania, USA

GOING TO POTTSVILLE?


FAA INFORMATION EFFECTIVE 07 NOVEMBER 2019

Location

FAA Identifier: ZER
Lat/Long: 40-42-24.3600N 076-22-22.7500W
40-42.406000N 076-22.379167W
40.7067667,-76.3729861
(estimated)
Elevation: 1729.4 ft. / 527.1 m (surveyed)
Variation: 12W (2000)
From city: 8 miles W of POTTSVILLE, PA
Time zone: UTC -5 (UTC -4 during Daylight Saving Time)
Zip code: 17921

Airport Operations

Airport use: Open to the public
Activation date: 10/1959
Control tower: no
ARTCC: NEW YORK CENTER
FSS: WILLIAMSPORT FLIGHT SERVICE STATION
NOTAMs facility: IPT (NOTAM-D service available)
Attendance: MON-FRI 0730-1700, ALL SAT - SUN ON CALL
FOR SVC AFTER HRS 570-617-6002.
Wind indicator: lighted
Segmented circle: no
Lights: ACTIVATE REIL RY 11/29; MIRL RY 11/29 - CTAF.
Beacon: white-green (lighted land airport)
Operates sunset to sunrise.

Airport Communications

CTAF/UNICOM: 123.075
WX AWOS-3: 127.575 (570-544-2778)
HARRISBURG APPROACH: 118.25
HARRISBURG DEPARTURE: 118.25
WX AWOS-3 at N79 (11 nm NW): 119.175 (570-672-0389)
WX ASOS at MUI (19 nm SW): 124.175 (717-861-2536)
WX AWOS-3 at 79PN (19 nm NW): 118.075 (570-271-8192)
  • RAVINE RCO 122.1R 114.6T (WILLIAMSPORT RADIO)

Nearby radio navigation aids

VOR radial/distance  VOR name  Freq  Var
RAVr059/13.8RAVINE VORTAC114.6011W
MIPr154/23.2MILTON VORTAC109.2009W
SEGr110/23.8SELINSGROVE VOR/DME110.4008W
ETXr293/32.3EAST TEXAS VOR/DME110.2009W
LRPr003/35.4LANCASTER VOR/DME117.3009W
HARr063/40.0HARRISBURG VORTAC112.5010W

 
NDB name  Hdg/Dist  Freq  Var  ID
BELLGROVE037/18.232810WBZJ -... --.. .---

Airport Services

Fuel available: 100LL JET-A
AVGAS SELF SERVE WITH CREDIT CARD.
JET-A SELF-SERVE WITH CREDIT CARD.
Parking: hangars and tiedowns
Airframe service: MINOR
Powerplant service: MINOR
Bottled oxygen: NONE
Bulk oxygen: NONE

Runway Information

Runway 11/29

Dimensions: 4599 x 75 ft. / 1402 x 23 m
Surface: asphalt, in good condition
Weight bearing capacity: 
Single wheel: 21.0
Runway edge lights: medium intensity
RUNWAY 11  RUNWAY 29
Latitude: 40-42.385858N40-42.282017N
Longitude: 076-23.021483W076-22.035672W
Elevation: 1729.4 ft.1706.5 ft.
Traffic pattern: leftleft
Runway heading: 110 magnetic, 098 true290 magnetic, 278 true
Markings: nonprecision, in good conditionnonprecision, in good condition
Visual slope indicator: 2-light PAPI on left (3.00 degrees glide path)
PAPI ON CONTINUOUSLY.
2-light PAPI on left (3.00 degrees glide path)
PAPI ON CONTINUOUSLY.
Runway end identifier lights: yesyes
Touchdown point: yes, no lightsyes, no lights
Obstructions: 28 ft. trees, 562 ft. from runway, 488 ft. right of centerline, 13:1 slope to clearnone

Runway 4/22

Dimensions: 2523 x 140 ft. / 769 x 43 m
Surface: turf, in good condition
Runway edge markings: RY 04/22 EDGE & DSPLCD THLD MKD WITH ORANGE CONES.
Operational restrictions: NOT MAINTAINED WINTER MONTHS.
RUNWAY 4  RUNWAY 22
Latitude: 40-42.360000N40-42.714500N
Longitude: 076-22.249333W076-21.964667W
Elevation: 1707.1 ft.1714.4 ft.
Traffic pattern: leftleft
Runway heading: 043 magnetic, 031 true223 magnetic, 211 true
Displaced threshold: no200 ft.
Markings: none, in poor conditionnone, in poor condition
Touchdown point: yes, no lightsyes, no lights
Obstructions: 34 ft. trees, 636 ft. from runway, 257 ft. right of centerline, 19:1 slope to clear30 ft. trees, 98 ft. from runway, 232 ft. left of centerline, 3:1 slope to clear
APCH RATIO 10:1 TO DSPLCD THLD.

Airport Ownership and Management from official FAA records

Ownership: Publicly-owned
Owner: SCHUYLKILL COUNTY A/P AUTH
240 AIRPORT ROAD
POTTSVILLE, PA 17901
Phone 570-544-6002
Manager: BILL WILLARD
240 AIRPORT ROAD
POTTSVILLE, PA 17901
Phone (570) 617-6002

Airport Operational Statistics

Aircraft based on the field: 25
Single engine airplanes: 20
Multi engine airplanes: 3
Jet airplanes: 2
    
Aircraft operations: avg 77/day *
45% local general aviation
31% transient general aviation
22% military
2% air taxi
* for 12-month period ending 05 September 2019

Additional Remarks

DEER ON & INVOF ARPT.
FOR CD CTC HARRISBURG APCH AT 800-932-0712.
GPU AVAILABLE FOR AC/DC POWER.

Instrument Procedures

NOTE: All procedures below are presented as PDF files. If you need a reader for these files, you should download the free Adobe Reader.

NOT FOR NAVIGATION. Please procure official charts for flight.
FAA instrument procedures published for use from 07 November 2019 at 0901Z to 05 December 2019 at 0900Z.

 
IAPs - Instrument Approach Procedures
RNAV (GPS) RWY 11   download (234KB)
RNAV (GPS) RWY 29   download (229KB)
VOR-A   download (164KB)
NOTE: Special Take-Off Minimums/Departure Procedures apply   download (149KB)

Other nearby airports with instrument procedures:

N79 - Northumberland County Airport (11 nm NW)
74N - Bendigo Airport (12 nm SW)
N13 - Bloomsburg Municipal Airport (18 nm N)
KMUI - Muir Army Airfield (Fort Indiantown Gap) (19 nm SW)
8N8 - Danville Airport (19 nm NW)
 
Loc | Ops | Rwys | IFR | FBO | Links
Com | Nav | Svcs | Stats | Notes
Area around KZER (Schuylkill County/Joe Zerbey Airport)
 
Road maps at: MapQuest Bing Google
 
Aerial photo
WARNING: Photo may not be current or correct
Aerial photo of KZER (Schuylkill County/Joe Zerbey Airport)
Photo by David Newcomer
Photo taken 03-Feb-2017
looking northeast from 4,000 altitude.

Do you have a better or more recent aerial photo of Schuylkill County/Joe Zerbey Airport that you would like to share? If so, please send us your photo.

 
Sectional chart

 
Airport distance calculator
Flying to Schuylkill County/Joe Zerbey Airport? Find the distance to fly.

From to KZER

Sunrise and sunset
Times for 14-Nov-2019
 Local
(UTC-5)
 Zulu
(UTC)
Morning civil twilight06:2311:23
Sunrise06:5211:52
Sunset16:4821:48
Evening civil twilight17:1722:17

Current date and time
Zulu (UTC)  15-Nov-2019 00:03:12
Local (UTC-5)  14-Nov-2019 19:03:12
 
METAR
KMUI 
20nm SW 
142256Z AUTO 00000KT 10SM OVC120 02/M07 A3029 RMK AO2 SLP266 T00231068
KSEG 
23nm W 
142353Z AUTO 20004KT 10SM FEW110 03/M07 A3027 RMK AO2 SLP256 T00281072 10044 20022 50001
KHZL 
24nm NE 
142355Z AUTO 16004KT 10SM OVC120 00/M09 A3026 RMK AO2
KRDG 
28nm SE 
142354Z 18005KT 10SM CLR 04/M06 A3030 RMK AO2 SLP268 T00391056 10056 20033 53001
K22N 
28nm E 
142356Z AUTO 00000KT 10SM CLR 00/M03 A3030 RMK AO2
KMDT 
35nm SW 
142356Z 17006KT 10SM OVC120 05/M07 A3029 RMK AO2 SLP262 T00501067 10078 20039 53002
KLNS 
36nm S 
142353Z 19003KT 10SM CLR 02/M06 A3030 RMK AO2 SLP267 T00221061 10061 20022 53002
KCXY 
37nm SW 
142356Z 17003KT 10SM SCT120 06/M08 A3030 RMK AO2 SLP265 T00561078 10072 20050 53003
TAF
KMUI 
20nm SW 
141907Z 1419/1601 20012KT 9999 BKN150 QNH3022INS BECMG 1420/1421 VRB06KT 9999 FEW100 QNH3013INS BECMG 1516/1517 29012KT 9999 FEW250 QNH3014INS TX07/1519Z TNM04/1510Z LAST NO AMDS AFT 1505 NEXT 1511
NOTAMs
Click for the latest NOTAMs
NOTAMs are issued by the DoD/FAA and will open in a separate window not controlled by AirNav.

 

 
 

FBO, Fuel Providers, and Aircraft Ground Support

  
 Business Name 
 
 Contact 
 
 Services / Description 
 
Fuel Prices
 
Comments
  
Schuylkill County Airport 570-544-6002
no information available

If you are affiliated with Schuylkill County Airport and would like to show here your services, contact info, web link, logo, and more, click here
100LL Jet A
FS $5.39 $4.31 
SS $5.29 $4.21 
 Updated 17-Oct-2019
 
   1 read write
FS=Full service
SS=Self service
Update Fuel Prices
 

Would you like to see your business listed on this page?

 If your business provides an interesting product or service to pilots, flight crews, aircraft, or users of the Schuylkill County/Joe Zerbey Airport, you should consider listing it here.  To start the listing process, click on the button below
 
Add a business
 

Other Pages about Schuylkill County/Joe Zerbey Airport

Update a link
 
Copyright © AirNav, LLC. All rights reserved. Privacy Policy  Contact